Overview Statistics Trail Chart Weather Telemetry Raw packets
 

This is the latest recevied weather packets stored in our database for station/object DG1ROH. If no packets are shown the sender has not sent any weather packets the latest 10 day(s).

<< 128 129 130 131 132 133 134 >>
Time Temp. Humidity Pressure Rain* Wind** Luminosity Snow
1777447143 8.89° C 45% 1029.7 hPa 0 mm - 32 W/m² -
1777447021 8.89° C 45% 1029.7 hPa 0 mm - 32 W/m² -
1777446902 8.89° C 48% 1029.6 hPa 0 mm - 32 W/m² -
1777446781 8.89° C 47% 1029.7 hPa 0 mm - 32 W/m² -
1777446661 8.89° C 49% 1029.6 hPa 0 mm - 30 W/m² -
1777446541 8.33° C 50% 1029.6 hPa 0 mm - 30 W/m² -
1777446423 8.33° C 51% 1029.6 hPa 0 mm - 30 W/m² -
1777446301 8.33° C 48% 1029.6 hPa 0 mm - 30 W/m² -
1777446181 8.33° C 48% 1029.6 hPa 0 mm - 30 W/m² -
1777446062 8.33° C 49% 1029.5 hPa 0 mm - 30 W/m² -
1777445941 8.33° C 50% 1029.5 hPa 0 mm - 28 W/m² -
1777445821 7.78° C 51% 1029.5 hPa 0 mm - 30 W/m² -
1777445701 7.78° C 55% 1029.5 hPa 0 mm - 30 W/m² -
1777445581 7.78° C 56% 1029.4 hPa 0 mm - 42 W/m² -
1777445461 7.78° C 54% 1029.4 hPa 0 mm - 32 W/m² -
1777445341 7.78° C 55% 1029.4 hPa 0 mm - 28 W/m² -
1777445221 7.78° C 57% 1029.4 hPa 0 mm - 26 W/m² -
1777445101 7.22° C 59% 1029.5 hPa 0 mm - 26 W/m² -
1777444981 7.22° C 60% 1029.4 hPa 0 mm - 26 W/m² -
1777444861 6.67° C 63% 1029.4 hPa 0 mm - 26 W/m² -
1777444741 6.67° C 64% 1029.4 hPa 0 mm - 25 W/m² -
1777444620 6.11° C 66% 1029.4 hPa 0 mm - 25 W/m² -
1777444500 6.11° C 67% 1029.3 hPa 0 mm - 25 W/m² -
1777444379 6.11° C 69% 1029.3 hPa 0 mm - 26 W/m² -
1777444259 6.11° C 70% 1029.4 hPa 0 mm - 25 W/m² -

* Rain latest hour (hover to see other rain measurements)
** Current wind speed in m/s (hover to see current wind gust speed)